Watsonville, CA

4:31 AM PDT on June 26, 2017 (GMT -0700)
Watsonville Municipal

Weather History for KWVI - January, 2013

Change the Weather History Date:

Thursday, January 3, 2013

  Actual Average Record
Temperature  
Mean Temperature 46 °F 50 °F  
Max Temperature 60 °F 61 °F 74 °F (2001)
Min Temperature 32 °F 39 °F 32 °F (2013)
Degree Days  
Heating Degree Days 19    
Month to date heating degree days 57  
Since 1 July heating degree days 1285  
Cooling Degree Days 0    
Month to date cooling degree days 0  
Year to date cooling degree days 0  
Moisture  
Dew Point 34 °F    
Average Humidity 63    
Maximum Humidity 89    
Minimum Humidity 36    
Precipitation  
Precipitation 0.00 in - 1.54 in (2017)
Month to date precipitation 0.00  
Year to date precipitation 0.00  
Since 1 July precipitation 10.94  
Sea Level Pressure  
Sea Level Pressure 30.20 in    
Wind  
Wind Speed 3 mph (WNW)    
Max Wind Speed 8 mph    
Max Gust Speed 18 mph    
Visibility 10 miles    
Events      
T = Trace of Precipitation, MM = Missing Value Source: NWS Daily Summary

Daily Weather History Graph

Daily Weather History Graph

Search for Another Location

Airport or City:

Trip Planner

Search our weather history database for the weather conditions in past years. The results will help you decide how hot, cold, wet, or windy it might be!

Date:

Astronomy

Jan. 03, 2013 Rise Set
Actual Time 7:20 AM PST 5:03 PM PST
Civil Twilight 6:51 AM PST 5:32 PM PST
Nautical Twilight 6:19 AM PST 6:04 PM PST
Astronomical Twilight 5:47 AM PST 6:36 PM PST
Moon 11:33 PM PST (1/3) 10:44 AM PST (1/3)
Length of Visible Light 10h 40m
Length of Day
9h 42m
Waning Gibbous, 64% of the Moon is Illuminated
Jan 3
Waning Gibbous
Jan 4
Last Quarter
Jan 11
New
Jan 18
First Quarter
Jan 26
Full

Hourly Weather History & Observations

Time (PST) Temp. Windchill Dew Point Humidity Pressure Visibility Wind Dir Wind Speed Gust Speed Precip Events Conditions
12:53 AM 37.0 °F - 32.0 °F 82% 30.16 in 10.0 mi Calm Calm - N/A   Clear
1:53 AM 34.0 °F - 30.9 °F 89% 30.17 in 10.0 mi Calm Calm - N/A   Clear
2:53 AM 35.1 °F 31.0 °F 30.9 °F 85% 30.17 in 10.0 mi NW 4.6 mph - N/A   Clear
3:53 AM 36.0 °F - 30.9 °F 82% 30.17 in 10.0 mi Calm Calm - N/A   Clear
4:53 AM 35.1 °F - 30.9 °F 85% 30.16 in 10.0 mi Calm Calm - N/A   Clear
5:53 AM 33.1 °F 30.0 °F 30.0 °F 89% 30.17 in 10.0 mi West 3.5 mph - N/A   Clear
6:53 AM 35.1 °F - 30.0 °F 82% 30.19 in 10.0 mi Calm Calm - N/A   Clear
7:53 AM 33.1 °F - 30.0 °F 89% 30.20 in 10.0 mi Calm Calm - N/A   Clear
8:53 AM 41.0 °F - 33.1 °F 73% 30.22 in 10.0 mi Calm Calm - N/A   Clear
9:53 AM 46.0 °F - 34.0 °F 63% 30.23 in 10.0 mi Calm Calm - N/A   Clear
10:53 AM 52.0 °F - 34.0 °F 50% 30.22 in 10.0 mi East 5.8 mph - N/A   Clear
11:53 AM 54.0 °F - 35.1 °F 49% 30.20 in 10.0 mi Calm Calm - N/A   Clear
12:53 PM 57.9 °F - 35.1 °F 42% 30.19 in 10.0 mi SE 3.5 mph - N/A   Clear
1:53 PM 59.0 °F - 39.0 °F 48% 30.18 in 10.0 mi SSE 4.6 mph - N/A   Clear
2:53 PM 57.9 °F - 30.9 °F 36% 30.19 in 10.0 mi WSW 4.6 mph - N/A   Clear
3:53 PM 57.0 °F - 34.0 °F 42% 30.20 in 10.0 mi West 3.5 mph - N/A   Clear
4:53 PM 50.0 °F - 39.0 °F 66% 30.20 in 10.0 mi WSW 5.8 mph - N/A   Clear
5:53 PM 50.0 °F - 43.0 °F 77% 30.22 in 10.0 mi WNW 4.6 mph - N/A   Clear
6:53 PM 46.0 °F 44.8 °F 39.0 °F 76% 30.22 in 10.0 mi NW 3.5 mph - N/A   Clear
7:53 PM 45.0 °F 42.6 °F 37.9 °F 76% 30.24 in 10.0 mi NNW 4.6 mph - N/A   Clear
8:53 PM 43.0 °F 41.3 °F 37.0 °F 80% 30.24 in 10.0 mi NNW 3.5 mph - N/A   Clear
9:53 PM 42.1 °F - 35.1 °F 76% 30.25 in 10.0 mi Calm Calm - N/A   Clear
10:53 PM 42.1 °F 39.2 °F 35.1 °F 76% 30.26 in 10.0 mi WNW 4.6 mph - N/A   Clear
11:53 PM 39.9 °F 36.7 °F 34.0 °F 79% 30.25 in 10.0 mi NW 4.6 mph - N/A   Clear